Aufgelaufene Messwerte:
Wetterdaten: aktuell Montag, 03.10.2022 04:15
Datum Zeit Temp. Feuchte Luftdruck Regen Wind WRichtung WRichtung Sonnenschein Verdunstung UV-Index Solar Taupunkt Windchill Windben Empfang
03.10.2022 04:15 9,9 C 93 % 1018,9 hPa 0,0 mm 7,0 km/h (2 Bft) W-NW 298 0 min 0,000 mm 0,0 UV-I 0 W/m 8,8 C 9,1 C 14,5 km/h (3 Bft) 98,35 %
03.10.2022 04:10 9,9 C 93 % 1018,7 hPa 0,0 mm 6,4 km/h (2 Bft) W-NW 296 0 min 0,000 mm 0,0 UV-I 0 W/m 8,8 C 9,3 C 14,5 km/h (3 Bft) 100,00 %
03.10.2022 04:05 9,9 C 93 % 1018,7 hPa 0,0 mm 6,0 km/h (2 Bft) NW 311 0 min 0,000 mm 0,0 UV-I 0 W/m 8,8 C 9,4 C 14,5 km/h (3 Bft) 100,00 %
03.10.2022 04:00 9,9 C 93 % 1018,7 hPa 0,0 mm 6,8 km/h (2 Bft) W-NW 302 0 min 0,000 mm 0,0 UV-I 0 W/m 8,8 C 9,2 C 16,1 km/h (3 Bft) 99,18 %
03.10.2022 03:55 9,9 C 93 % 1018,6 hPa 0,0 mm 6,1 km/h (2 Bft) NW 309 0 min 0,000 mm 0,0 UV-I 0 W/m 8,8 C 9,3 C 14,5 km/h (3 Bft) 100,00 %
03.10.2022 03:50 9,9 C 93 % 1018,6 hPa 0,0 mm 6,1 km/h (2 Bft) N-NW 327 0 min 0,000 mm 0,0 UV-I 0 W/m 8,8 C 9,3 C 14,5 km/h (3 Bft) 99,10 %
03.10.2022 03:45 9,9 C 93 % 1018,5 hPa 0,0 mm 6,4 km/h (2 Bft) W-SW 253 0 min 0,000 mm 0,0 UV-I 0 W/m 8,8 C 9,3 C 12,9 km/h (3 Bft) 97,54 %
03.10.2022 03:40 9,8 C 93 % 1018,5 hPa 0,0 mm 5,6 km/h (1 Bft) NW 308 0 min 0,000 mm 0,0 UV-I 0 W/m 8,7 C 9,4 C 12,9 km/h (3 Bft) 96,67 %
03.10.2022 03:35 9,8 C 93 % 1018,4 hPa 0,0 mm 5,7 km/h (1 Bft) W-NW 297 0 min 0,000 mm 0,0 UV-I 0 W/m 8,7 C 9,3 C 12,9 km/h (3 Bft) 97,27 %
03.10.2022 03:30 9,9 C 94 % 1018,4 hPa 0,0 mm 6,7 km/h (2 Bft) W-NW 300 0 min 0,000 mm 0,0 UV-I 0 W/m 9,0 C 9,2 C 16,1 km/h (3 Bft) 99,17 %
03.10.2022 03:25 9,9 C 94 % 1018,4 hPa 0,0 mm 6,8 km/h (2 Bft) W-NW 292 0 min 0,000 mm 0,0 UV-I 0 W/m 9,0 C 9,2 C 14,5 km/h (3 Bft) 100,00 %
03.10.2022 03:20 9,9 C 93 % 1018,4 hPa 0,0 mm 6,7 km/h (2 Bft) W-SW 254 0 min 0,000 mm 0,0 UV-I 0 W/m 8,8 C 9,2 C 12,9 km/h (3 Bft) 98,36 %
03.10.2022 03:15 9,8 C 93 % 1018,4 hPa 0,0 mm 6,5 km/h (2 Bft) W 279 0 min 0,000 mm 0,0 UV-I 0 W/m 8,7 C 9,1 C 12,9 km/h (3 Bft) 99,18 %
03.10.2022 03:10 9,9 C 93 % 1018,4 hPa 0,0 mm 6,3 km/h (2 Bft) W 271 0 min 0,000 mm 0,0 UV-I 0 W/m 8,8 C 9,3 C 14,5 km/h (3 Bft) 97,27 %
03.10.2022 03:05 9,9 C 93 % 1018,3 hPa 0,0 mm 5,2 km/h (1 Bft) W 271 0 min 0,000 mm 0,0 UV-I 0 W/m 8,8 C 9,6 C 11,3 km/h (2 Bft) 100,00 %
03.10.2022 03:00 9,9 C 93 % 1018,3 hPa 0,0 mm 4,6 km/h (1 Bft) W-NW 288 0 min 0,000 mm 0,0 UV-I 0 W/m 8,8 C 9,8 C 12,9 km/h (3 Bft) 100,00 %
03.10.2022 02:55 10,0 C 93 % 1018,3 hPa 0,0 mm 5,8 km/h (2 Bft) W 273 0 min 0,000 mm 0,0 UV-I 0 W/m 8,9 C 9,5 C 11,3 km/h (2 Bft) 100,00 %
03.10.2022 02:50 10,1 C 93 % 1018,3 hPa 0,0 mm 6,0 km/h (2 Bft) W-NW 288 0 min 0,000 mm 0,0 UV-I 0 W/m 9,0 C 10,1 C 12,9 km/h (3 Bft) 100,00 %
03.10.2022 02:45 10,1 C 94 % 1018,2 hPa 0,0 mm 6,9 km/h (2 Bft) NW 319 0 min 0,000 mm 0,0 UV-I 0 W/m 9,2 C 10,1 C 12,9 km/h (3 Bft) 97,56 %
03.10.2022 02:40 10,0 C 94 % 1018,1 hPa 0,0 mm 5,6 km/h (1 Bft) W 277 0 min 0,000 mm 0,0 UV-I 0 W/m 9,1 C 9,6 C 14,5 km/h (3 Bft) 95,50 %
03.10.2022 02:35 9,9 C 94 % 1018,0 hPa 0,0 mm 5,9 km/h (2 Bft) NW 308 0 min 0,000 mm 0,0 UV-I 0 W/m 9,0 C 9,4 C 12,9 km/h (3 Bft) 96,67 %
03.10.2022 02:30 9,9 C 94 % 1018,1 hPa 0,0 mm 6,3 km/h (2 Bft) W-NW 295 0 min 0,000 mm 0,0 UV-I 0 W/m 9,0 C 9,3 C 12,9 km/h (3 Bft) 97,56 %
03.10.2022 02:25 9,9 C 94 % 1018,0 hPa 0,0 mm 6,4 km/h (2 Bft) W-NW 293 0 min 0,000 mm 0,0 UV-I 0 W/m 9,0 C 9,3 C 12,9 km/h (3 Bft) 100,00 %
03.10.2022 02:20 9,9 C 93 % 1018,0 hPa 0,0 mm 6,3 km/h (2 Bft) NW 306 0 min 0,000 mm 0,0 UV-I 0 W/m 8,8 C 9,3 C 12,9 km/h (3 Bft) 100,00 %
03.10.2022 02:15 9,9 C 94 % 1017,9 hPa 0,0 mm 6,3 km/h (2 Bft) W-NW 287 0 min 0,000 mm 0,0 UV-I 0 W/m 9,0 C 9,3 C 12,9 km/h (3 Bft) 100,00 %
03.10.2022 02:10 9,9 C 93 % 1017,8 hPa 0,0 mm 5,7 km/h (1 Bft) W-NW 294 0 min 0,000 mm 0,0 UV-I 0 W/m 8,8 C 9,4 C 12,9 km/h (3 Bft) 100,00 %
03.10.2022 02:05 9,9 C 93 % 1017,8 hPa 0,0 mm 5,7 km/h (1 Bft) W 271 0 min 0,000 mm 0,0 UV-I 0 W/m 8,8 C 9,4 C 11,3 km/h (2 Bft) 100,00 %
03.10.2022 02:00 9,9 C 93 % 1017,8 hPa 0,0 mm 4,6 km/h (1 Bft) W-NW 296 0 min 0,000 mm 0,0 UV-I 0 W/m 8,8 C 9,8 C 11,3 km/h (2 Bft) 100,00 %
03.10.2022 01:55 9,9 C 94 % 1017,7 hPa 0,0 mm 5,0 km/h (1 Bft) W-NW 283 0 min 0,000 mm 0,0 UV-I 0 W/m 9,0 C 9,6 C 9,7 km/h (2 Bft) 99,12 %
03.10.2022 01:50 9,9 C 93 % 1017,8 hPa 0,0 mm 5,6 km/h (1 Bft) NW 313 0 min 0,000 mm 0,0 UV-I 0 W/m 8,8 C 9,5 C 9,7 km/h (2 Bft) 98,37 %
03.10.2022 01:45 9,9 C 93 % 1017,7 hPa 0,0 mm 6,9 km/h (2 Bft) W 263 0 min 0,000 mm 0,0 UV-I 0 W/m 8,8 C 9,1 C 12,9 km/h (3 Bft) 96,36 %
03.10.2022 01:40 9,9 C 93 % 1017,7 hPa 0,0 mm 5,8 km/h (2 Bft) NW 308 0 min 0,000 mm 0,0 UV-I 0 W/m 8,8 C 9,4 C 12,9 km/h (3 Bft) 98,35 %
03.10.2022 01:35 9,9 C 93 % 1017,6 hPa 0,0 mm 5,7 km/h (1 Bft) W 265 0 min 0,000 mm 0,0 UV-I 0 W/m 8,8 C 9,4 C 11,3 km/h (2 Bft) 95,83 %
03.10.2022 01:30 10,1 C 94 % 1017,5 hPa 0,0 mm 6,6 km/h (2 Bft) NW 310 0 min 0,000 mm 0,0 UV-I 0 W/m 9,2 C 10,1 C 16,1 km/h (3 Bft) 97,30 %
03.10.2022 01:25 9,9 C 93 % 1017,5 hPa 0,0 mm 6,0 km/h (2 Bft) W-NW 290 0 min 0,000 mm 0,0 UV-I 0 W/m 8,8 C 9,4 C 16,1 km/h (3 Bft) 99,17 %
03.10.2022 01:20 9,9 C 93 % 1017,5 hPa 0,0 mm 4,9 km/h (1 Bft) W-NW 295 0 min 0,000 mm 0,0 UV-I 0 W/m 8,8 C 9,7 C 11,3 km/h (2 Bft) 99,19 %
03.10.2022 01:15 10,1 C 93 % 1017,4 hPa 0,0 mm 3,8 km/h (1 Bft) W-NW 298 0 min 0,000 mm 0,0 UV-I 0 W/m 9,0 C 10,1 C 9,7 km/h (2 Bft) 100,00 %
03.10.2022 01:10 10,1 C 93 % 1017,4 hPa 0,0 mm 4,0 km/h (1 Bft) W 270 0 min 0,000 mm 0,0 UV-I 0 W/m 9,0 C 10,1 C 9,7 km/h (2 Bft) 100,00 %
03.10.2022 01:05 10,0 C 93 % 1017,4 hPa 0,0 mm 4,5 km/h (1 Bft) W 269 0 min 0,000 mm 0,0 UV-I 0 W/m 8,9 C 10,0 C 9,7 km/h (2 Bft) 100,00 %
03.10.2022 01:00 10,0 C 93 % 1017,4 hPa 0,0 mm 4,8 km/h (1 Bft) W 274 0 min 0,000 mm 0,0 UV-I 0 W/m 8,9 C 9,8 C 12,9 km/h (3 Bft) 100,00 %
03.10.2022 00:55 10,2 C 93 % 1017,3 hPa 0,0 mm 4,6 km/h (1 Bft) SW 236 0 min 0,000 mm 0,0 UV-I 0 W/m 9,1 C 10,2 C 9,7 km/h (2 Bft) 99,17 %
03.10.2022 00:50 10,2 C 93 % 1017,4 hPa 0,0 mm 3,0 km/h (1 Bft) W 277 0 min 0,000 mm 0,0 UV-I 0 W/m 9,1 C 10,2 C 8,0 km/h (2 Bft) 100,00 %
03.10.2022 00:45 10,2 C 93 % 1017,3 hPa 0,0 mm 3,8 km/h (1 Bft) W-NW 286 0 min 0,000 mm 0,0 UV-I 0 W/m 9,1 C 10,2 C 8,0 km/h (2 Bft) 98,17 %
03.10.2022 00:40 10,2 C 93 % 1017,2 hPa 0,0 mm 4,5 km/h (1 Bft) W-NW 302 0 min 0,000 mm 0,0 UV-I 0 W/m 9,1 C 10,2 C 12,9 km/h (3 Bft) 97,60 %
03.10.2022 00:35 10,2 C 93 % 1017,1 hPa 0,0 mm 5,0 km/h (1 Bft) W 260 0 min 0,000 mm 0,0 UV-I 0 W/m 9,1 C 10,2 C 11,3 km/h (2 Bft) 96,40 %
03.10.2022 00:30 10,1 C 93 % 1017,1 hPa 0,0 mm 4,9 km/h (1 Bft) W 279 0 min 0,000 mm 0,0 UV-I 0 W/m 9,0 C 10,1 C 11,3 km/h (2 Bft) 95,54 %
03.10.2022 00:25 10,2 C 93 % 1017,0 hPa 0,0 mm 4,8 km/h (1 Bft) W 275 0 min 0,000 mm 0,0 UV-I 0 W/m 9,1 C 10,2 C 8,0 km/h (2 Bft) 99,19 %
03.10.2022 00:20 10,2 C 93 % 1016,9 hPa 0,0 mm 5,0 km/h (1 Bft) W 277 0 min 0,000 mm 0,0 UV-I 0 W/m 9,1 C 10,2 C 9,7 km/h (2 Bft) 99,17 %
03.10.2022 00:15 10,3 C 93 % 1016,8 hPa 0,0 mm 3,5 km/h (1 Bft) W-NW 288 0 min 0,000 mm 0,0 UV-I 0 W/m 9,2 C 10,3 C 8,0 km/h (2 Bft) 99,12 %
03.10.2022 00:10 10,3 C 93 % 1016,8 hPa 0,0 mm 4,0 km/h (1 Bft) W-SW 257 0 min 0,000 mm 0,0 UV-I 0 W/m 9,2 C 10,3 C 9,7 km/h (2 Bft) 99,18 %
03.10.2022 00:05 10,2 C 93 % 1016,8 hPa 0,0 mm 4,2 km/h (1 Bft) W-NW 299 0 min 0,000 mm 0,0 UV-I 0 W/m 9,1 C 10,2 C 8,0 km/h (2 Bft) 100,00 %
03.10.2022 00:00 10,3 C 93 % 1016,8 hPa 0,0 mm 4,5 km/h (1 Bft) NW 315 0 min 0,000 mm 0,0 UV-I 0 W/m 9,2 C 10,3 C 11,3 km/h (2 Bft) 100,00 %
02.10.2022 23:55 10,4 C 93 % 1016,7 hPa 0,0 mm 6,3 km/h (2 Bft) NW 305 0 min 0,000 mm 0,0 UV-I 0 W/m 9,3 C 10,4 C 12,9 km/h (3 Bft) 99,17 %
02.10.2022 23:50 10,3 C 92 % 1016,7 hPa 0,0 mm 4,2 km/h (1 Bft) W-NW 294 0 min 0,000 mm 0,0 UV-I 0 W/m 9,1 C 10,3 C 9,7 km/h (2 Bft) 98,17 %
02.10.2022 23:45 10,4 C 93 % 1016,7 hPa 0,0 mm 6,6 km/h (2 Bft) NW 304 0 min 0,000 mm 0,0 UV-I 0 W/m 9,3 C 10,4 C 17,7 km/h (3 Bft) 97,50 %
02.10.2022 23:40 10,4 C 92 % 1016,7 hPa 0,0 mm 4,8 km/h (1 Bft) W-NW 293 0 min 0,000 mm 0,0 UV-I 0 W/m 9,2 C 10,4 C 11,3 km/h (2 Bft) 98,35 %
02.10.2022 23:35 10,4 C 93 % 1016,6 hPa 0,0 mm 5,2 km/h (1 Bft) W-NW 288 0 min 0,000 mm 0,0 UV-I 0 W/m 9,3 C 10,4 C 12,9 km/h (3 Bft) 97,25 %
02.10.2022 23:30 10,4 C 93 % 1016,7 hPa 0,2 mm 4,5 km/h (1 Bft) NW 309 0 min 0,000 mm 0,0 UV-I 0 W/m 9,3 C 10,4 C 14,5 km/h (3 Bft) 96,75 %
02.10.2022 23:25 10,4 C 92 % 1016,5 hPa 0,0 mm 7,0 km/h (2 Bft) W-NW 296 0 min 0,000 mm 0,0 UV-I 0 W/m 9,2 C 10,4 C 16,1 km/h (3 Bft) 100,00 %
02.10.2022 23:20 10,4 C 92 % 1016,5 hPa 0,0 mm 5,1 km/h (1 Bft) NW 317 0 min 0,000 mm 0,0 UV-I 0 W/m 9,2 C 10,4 C 11,3 km/h (2 Bft) 99,16 %
02.10.2022 23:15 10,5 C 93 % 1016,5 hPa 0,0 mm 5,7 km/h (1 Bft) W 269 0 min 0,000 mm 0,0 UV-I 0 W/m 9,4 C 10,5 C 12,9 km/h (3 Bft) 100,00 %
02.10.2022 23:10 10,5 C 93 % 1016,3 hPa 0,0 mm 4,5 km/h (1 Bft) W-SW 255 0 min 0,000 mm 0,0 UV-I 0 W/m 9,4 C 10,5 C 17,7 km/h (3 Bft) 100,00 %
02.10.2022 23:05 10,5 C 93 % 1016,2 hPa 0,0 mm 7,5 km/h (2 Bft) W-NW 302 0 min 0,000 mm 0,0 UV-I 0 W/m 9,4 C 10,5 C 14,5 km/h (3 Bft) 99,19 %
02.10.2022 23:00 10,4 C 93 % 1016,2 hPa 0,0 mm 6,1 km/h (2 Bft) NW 309 0 min 0,000 mm 0,0 UV-I 0 W/m 9,3 C 10,4 C 14,5 km/h (3 Bft) 99,09 %
02.10.2022 22:55 10,1 C 93 % 1016,2 hPa 0,0 mm 5,4 km/h (1 Bft) W 265 0 min 0,000 mm 0,0 UV-I 0 W/m 9,0 C 10,1 C 12,9 km/h (3 Bft) 99,18 %
02.10.2022 22:50 10,1 C 92 % 1016,1 hPa 0,0 mm 2,7 km/h (1 Bft) W 279 0 min 0,000 mm 0,0 UV-I 0 W/m 8,9 C 10,1 C 11,3 km/h (2 Bft) 99,12 %
02.10.2022 22:45 10,3 C 92 % 1016,1 hPa 0,0 mm 3,5 km/h (1 Bft) W-SW 257 0 min 0,000 mm 0,0 UV-I 0 W/m 9,1 C 10,3 C 8,0 km/h (2 Bft) 98,37 %
02.10.2022 22:40 10,4 C 92 % 1016,0 hPa 0,0 mm 3,5 km/h (1 Bft) W-NW 291 0 min 0,000 mm 0,0 UV-I 0 W/m 9,2 C 10,4 C 8,0 km/h (2 Bft) 95,45 %
02.10.2022 22:35 10,6 C 92 % 1016,0 hPa 0,0 mm 4,1 km/h (1 Bft) W 269 0 min 0,000 mm 0,0 UV-I 0 W/m 9,4 C 10,6 C 8,0 km/h (2 Bft) 97,50 %
02.10.2022 22:30 10,6 C 92 % 1016,0 hPa 0,0 mm 3,3 km/h (1 Bft) W-NW 292 0 min 0,000 mm 0,0 UV-I 0 W/m 9,4 C 10,6 C 9,7 km/h (2 Bft) 98,35 %
02.10.2022 22:25 10,7 C 92 % 1015,9 hPa 0,0 mm 4,8 km/h (1 Bft) W 266 0 min 0,000 mm 0,0 UV-I 0 W/m 9,5 C 10,7 C 11,3 km/h (2 Bft) 99,15 %
02.10.2022 22:20 10,7 C 92 % 1015,9 hPa 0,0 mm 5,8 km/h (2 Bft) NW 310 0 min 0,000 mm 0,0 UV-I 0 W/m 9,5 C 10,7 C 12,9 km/h (3 Bft) 99,11 %
02.10.2022 22:15 10,8 C 92 % 1015,8 hPa 0,0 mm 6,5 km/h (2 Bft) W-NW 287 0 min 0,000 mm 0,0 UV-I 0 W/m 9,6 C 10,8 C 16,1 km/h (3 Bft) 99,17 %
02.10.2022 22:10 10,8 C 92 % 1015,8 hPa 0,0 mm 7,5 km/h (2 Bft) W-NW 287 0 min 0,000 mm 0,0 UV-I 0 W/m 9,6 C 10,8 C 19,3 km/h (3 Bft) 100,00 %
02.10.2022 22:05 10,7 C 92 % 1015,8 hPa 0,0 mm 5,6 km/h (1 Bft) NW 315 0 min 0,000 mm 0,0 UV-I 0 W/m 9,5 C 10,7 C 9,7 km/h (2 Bft) 100,00 %
02.10.2022 22:00 10,7 C 92 % 1015,7 hPa 0,0 mm 4,6 km/h (1 Bft) NW 306 0 min 0,000 mm 0,0 UV-I 0 W/m 9,5 C 10,7 C 11,3 km/h (2 Bft) 100,00 %
02.10.2022 21:55 10,8 C 91 % 1015,7 hPa 0,0 mm 4,4 km/h (1 Bft) NW 312 0 min 0,000 mm 0,0 UV-I 0 W/m 9,4 C 10,8 C 9,7 km/h (2 Bft) 99,09 %
02.10.2022 21:50 10,9 C 92 % 1015,6 hPa 0,0 mm 6,3 km/h (2 Bft) N 355 0 min 0,000 mm 0,0 UV-I 0 W/m 9,7 C 10,9 C 16,1 km/h (3 Bft) 100,00 %
02.10.2022 21:45 10,8 C 92 % 1015,6 hPa 0,0 mm 3,5 km/h (1 Bft) N-NO 20 0 min 0,000 mm 0,0 UV-I 0 W/m 9,6 C 10,8 C 8,0 km/h (2 Bft) 97,54 %
02.10.2022 21:40 10,7 C 92 % 1015,5 hPa 0,0 mm 6,7 km/h (2 Bft) W 271 0 min 0,000 mm 0,0 UV-I 0 W/m 9,5 C 10,7 C 14,5 km/h (3 Bft) 98,18 %
02.10.2022 21:35 10,8 C 92 % 1015,4 hPa 0,0 mm 3,6 km/h (1 Bft) NW 312 0 min 0,000 mm 0,0 UV-I 0 W/m 9,6 C 10,8 C 8,0 km/h (2 Bft) 96,75 %
02.10.2022 21:30 10,8 C 91 % 1015,5 hPa 0,0 mm 3,8 km/h (1 Bft) NW 307 0 min 0,000 mm 0,0 UV-I 0 W/m 9,4 C 10,8 C 8,0 km/h (2 Bft) 97,27 %
02.10.2022 21:25 11,1 C 91 % 1015,4 hPa 0,0 mm 5,4 km/h (1 Bft) W-NW 299 0 min 0,000 mm 0,0 UV-I 0 W/m 9,7 C 11,1 C 12,9 km/h (3 Bft) 98,32 %
02.10.2022 21:20 11,2 C 92 % 1015,3 hPa 0,0 mm 6,4 km/h (2 Bft) W-NW 302 0 min 0,000 mm 0,0 UV-I 0 W/m 9,9 C 11,2 C 14,5 km/h (3 Bft) 100,00 %
02.10.2022 21:15 11,0 C 92 % 1015,4 hPa 0,0 mm 6,6 km/h (2 Bft) W-NW 292 0 min 0,000 mm 0,0 UV-I 0 W/m 9,8 C 11,0 C 16,1 km/h (3 Bft) 100,00 %
02.10.2022 21:10 10,9 C 92 % 1015,3 hPa 0,0 mm 4,2 km/h (1 Bft) NW 323 0 min 0,000 mm 0,0 UV-I 0 W/m 9,7 C 10,9 C 9,7 km/h (2 Bft) 98,35 %
02.10.2022 21:05 10,9 C 92 % 1015,2 hPa 0,0 mm 5,4 km/h (1 Bft) N-NW 342 0 min 0,000 mm 0,0 UV-I 0 W/m 9,7 C 10,9 C 11,3 km/h (2 Bft) 100,00 %
02.10.2022 21:00 10,9 C 92 % 1015,2 hPa 0,0 mm 4,8 km/h (1 Bft) NW 313 0 min 0,000 mm 0,0 UV-I 0 W/m 9,7 C 10,9 C 14,5 km/h (3 Bft) 99,17 %
02.10.2022 20:55 10,9 C 92 % 1015,1 hPa 0,0 mm 4,6 km/h (1 Bft) W 261 0 min 0,000 mm 0,0 UV-I 0 W/m 9,7 C 10,9 C 12,9 km/h (3 Bft) 100,00 %
02.10.2022 20:50 10,9 C 92 % 1015,1 hPa 0,0 mm 6,0 km/h (2 Bft) W-NW 302 0 min 0,000 mm 0,0 UV-I 0 W/m 9,7 C 10,9 C 11,3 km/h (2 Bft) 99,09 %
02.10.2022 20:45 10,9 C 92 % 1015,1 hPa 0,0 mm 6,1 km/h (2 Bft) N-NW 344 0 min 0,000 mm 0,0 UV-I 0 W/m 9,7 C 10,9 C 11,3 km/h (2 Bft) 95,87 %
02.10.2022 20:40 10,9 C 93 % 1014,9 hPa 0,0 mm 6,8 km/h (2 Bft) NW 324 0 min 0,000 mm 0,0 UV-I 0 W/m 9,8 C 10,9 C 20,9 km/h (4 Bft) 97,54 %
02.10.2022 20:35 10,7 C 92 % 1014,9 hPa 0,0 mm 7,1 km/h (2 Bft) W-SW 248 0 min 0,000 mm 0,0 UV-I 0 W/m 9,5 C 10,7 C 14,5 km/h (3 Bft) 98,15 %
02.10.2022 20:30 10,8 C 92 % 1014,8 hPa 0,0 mm 5,1 km/h (1 Bft) W-NW 302 0 min 0,000 mm 0,0 UV-I 0 W/m 9,6 C 10,8 C 14,5 km/h (3 Bft) 96,69 %
02.10.2022 20:25 10,9 C 92 % 1014,8 hPa 0,0 mm 5,7 km/h (1 Bft) W-NW 301 0 min 0,000 mm 0,0 UV-I 0 W/m 9,7 C 10,9 C 17,7 km/h (3 Bft) 99,18 %
02.10.2022 20:20 10,9 C 93 % 1014,7 hPa 0,0 mm 5,4 km/h (1 Bft) W-NW 282 0 min 0,000 mm 0,0 UV-I 0 W/m 9,8 C 10,9 C 16,1 km/h (3 Bft) 100,00 %
02.10.2022 20:15 10,8 C 92 % 1014,6 hPa 0,0 mm 4,1 km/h (1 Bft) NW 304 0 min 0,000 mm 0,0 UV-I 0 W/m 9,6 C 10,8 C 9,7 km/h (2 Bft) 98,36 %
02.10.2022 20:10 10,9 C 93 % 1014,6 hPa 0,0 mm 3,7 km/h (1 Bft) W-SW 247 0 min 0,000 mm 0,0 UV-I 0 W/m 9,8 C 10,9 C 8,0 km/h (2 Bft) 99,10 %
02.10.2022 20:05 10,8 C 92 % 1014,5 hPa 0,0 mm 4,3 km/h (1 Bft) NW 304 0 min 0,000 mm 0,0 UV-I 0 W/m 9,6 C 10,8 C 9,7 km/h (2 Bft) 100,00 %
02.10.2022 20:00 10,9 C 93 % 1014,5 hPa 0,0 mm 3,9 km/h (1 Bft) W 266 0 min 0,000 mm 0,0 UV-I 0 W/m 9,8 C 10,9 C 11,3 km/h (2 Bft) 99,17 %
02.10.2022 19:55 10,9 C 93 % 1014,6 hPa 0,0 mm 2,4 km/h (1 Bft) W-NW 302 0 min 0,000 mm 0,0 UV-I 0 W/m 9,8 C 10,9 C 6,4 km/h (2 Bft) 99,09 %
02.10.2022 19:50 10,8 C 92 % 1014,5 hPa 0,0 mm 2,8 km/h (1 Bft) W-NW 296 0 min 0,000 mm 0,0 UV-I 0 W/m 9,6 C 10,8 C 8,0 km/h (2 Bft) 99,16 %
02.10.2022 19:45 11,1 C 92 % 1014,4 hPa 0,0 mm 3,2 km/h (1 Bft) W-NW 290 0 min 0,000 mm 0,0 UV-I 0 W/m 9,8 C 11,1 C 8,0 km/h (2 Bft) 95,83 %
02.10.2022 19:40 11,2 C 92 % 1014,4 hPa 0,0 mm 3,4 km/h (1 Bft) N-NW 328 0 min 0,000 mm 0,0 UV-I 0 W/m 9,9 C 11,2 C 8,0 km/h (2 Bft) 96,36 %
02.10.2022 19:35 11,2 C 92 % 1014,3 hPa 0,0 mm 4,1 km/h (1 Bft) W-NW 296 0 min 0,000 mm 0,0 UV-I 0 W/m 9,9 C 11,2 C 9,7 km/h (2 Bft) 96,75 %
02.10.2022 19:30 11,1 C 92 % 1014,1 hPa 0,0 mm 5,1 km/h (1 Bft) W 263 0 min 0,000 mm 0,0 UV-I 0 W/m 9,8 C 11,1 C 12,9 km/h (3 Bft) 99,11 %
02.10.2022 19:25 11,2 C 92 % 1014,0 hPa 0,0 mm 1,5 km/h (1 Bft) W 280 0 min 0,000 mm 0,0 UV-I 0 W/m 9,9 C 11,2 C 11,3 km/h (2 Bft) 98,33 %
02.10.2022 19:20 11,4 C 91 % 1013,8 hPa 0,0 mm 3,7 km/h (1 Bft) N-NW 341 0 min 0,000 mm 0,0 UV-I 0 W/m 10,0 C 11,4 C 8,0 km/h (2 Bft) 98,39 %
02.10.2022 19:15 11,6 C 91 % 1013,7 hPa 0,0 mm 4,1 km/h (1 Bft) W-NW 292 0 min 0,000 mm 0,0 UV-I 0 W/m 10,2 C 11,6 C 8,0 km/h (2 Bft) 100,00 %
02.10.2022 19:10 11,7 C 91 % 1013,7 hPa 0,0 mm 3,2 km/h (1 Bft) NW 313 0 min 0,001 mm 0,0 UV-I 0 W/m 10,3 C 11,7 C 8,0 km/h (2 Bft) 100,00 %
02.10.2022 19:05 11,8 C 91 % 1013,6 hPa 0,0 mm 5,4 km/h (1 Bft) W-NW 296 0 min 0,025 mm 0,0 UV-I 0 W/m 10,4 C 11,8 C 11,3 km/h (2 Bft) 100,00 %
02.10.2022 19:00 11,9 C 91 % 1013,6 hPa 0,0 mm 4,9 km/h (1 Bft) W-NW 302 0 min 0,000 mm 0,0 UV-I 4 W/m 10,5 C 11,9 C 11,3 km/h (2 Bft) 98,35 %
02.10.2022 18:55 12,1 C 91 % 1013,5 hPa 0,0 mm 5,3 km/h (1 Bft) NW 315 0 min 0,000 mm 0,0 UV-I 6 W/m 10,7 C 12,1 C 11,3 km/h (2 Bft) 98,35 %
02.10.2022 18:50 12,2 C 91 % 1013,4 hPa 0,0 mm 6,4 km/h (2 Bft) W-NW 301 0 min 0,000 mm 0,0 UV-I 10 W/m 10,8 C 12,2 C 19,3 km/h (3 Bft) 100,00 %
02.10.2022 18:45 12,2 C 91 % 1013,3 hPa 0,0 mm 6,3 km/h (2 Bft) NW 306 0 min 0,000 mm 0,0 UV-I 11 W/m 10,8 C 12,2 C 14,5 km/h (3 Bft) 96,69 %
02.10.2022 18:40 12,2 C 91 % 1013,2 hPa 0,0 mm 6,4 km/h (2 Bft) W-SW 257 5 min 0,000 mm 0,0 UV-I 10 W/m 10,8 C 12,2 C 12,9 km/h (3 Bft) 97,27 %
02.10.2022 18:35 12,2 C 91 % 1013,2 hPa 0,0 mm 2,8 km/h (1 Bft) NW 319 0 min 0,000 mm 0,0 UV-I 11 W/m 10,8 C 12,2 C 4,8 km/h (1 Bft) 97,56 %
02.10.2022 18:30 12,2 C 91 % 1013,1 hPa 0,0 mm 3,6 km/h (1 Bft) W 279 0 min 0,000 mm 0,0 UV-I 18 W/m 10,8 C 12,2 C 8,0 km/h (2 Bft) 98,32 %
02.10.2022 18:25 12,3 C 90 % 1013,0 hPa 0,0 mm 3,0 km/h (1 Bft) NW 323 5 min 0,000 mm 0,0 UV-I 29 W/m 10,7 C 12,3 C 8,0 km/h (2 Bft) 99,09 %
02.10.2022 18:20 12,3 C 90 % 1012,9 hPa 0,0 mm 3,3 km/h (1 Bft) NW 322 5 min 0,000 mm 0,0 UV-I 35 W/m 10,7 C 12,3 C 6,4 km/h (2 Bft) 100,00 %
02.10.2022 18:15 12,6 C 89 % 1012,9 hPa 0,0 mm 5,2 km/h (1 Bft) NW 311 0 min 0,000 mm 0,0 UV-I 38 W/m 10,8 C 12,6 C 11,3 km/h (2 Bft) 97,50 %
02.10.2022 18:10 12,8 C 88 % 1012,8 hPa 0,0 mm 5,9 km/h (2 Bft) N-NW 336 5 min 0,000 mm 0,0 UV-I 49 W/m 10,9 C 12,8 C 14,5 km/h (3 Bft) 100,00 %
02.10.2022 18:05 13,0 C 88 % 1012,7 hPa 0,0 mm 7,9 km/h (2 Bft) NW 312 5 min 0,000 mm 0,0 UV-I 99 W/m 11,1 C 13,0 C 17,7 km/h (3 Bft) 100,00 %
02.10.2022 18:00 13,3 C 86 % 1012,7 hPa 1,2 mm 10,9 km/h (2 Bft) NW 304 5 min 0,076 mm 0,0 UV-I 119 W/m 11,0 C 13,3 C 29,0 km/h (5 Bft) 100,00 %
02.10.2022 17:55 13,9 C 84 % 1012,9 hPa 0,0 mm 8,3 km/h (2 Bft) NW 319 5 min 0,000 mm 0,0 UV-I 81 W/m 11,2 C 13,9 C 30,6 km/h (5 Bft) 99,08 %
02.10.2022 17:50 14,4 C 81 % 1012,6 hPa 0,2 mm 8,7 km/h (2 Bft) W-NW 300 5 min 0,000 mm 0,0 UV-I 105 W/m 11,2 C 14,4 C 16,1 km/h (3 Bft) 99,19 %
02.10.2022 17:45 15,1 C 79 % 1012,6 hPa 0,0 mm 7,3 km/h (2 Bft) W-NW 289 5 min 0,000 mm 0,0 UV-I 139 W/m 11,5 C 15,1 C 17,7 km/h (3 Bft) 97,27 %
02.10.2022 17:40 15,2 C 79 % 1012,6 hPa 0,0 mm 8,2 km/h (2 Bft) NW 304 5 min 0,000 mm 0,0 UV-I 148 W/m 11,6 C 15,2 C 14,5 km/h (3 Bft) 96,72 %
02.10.2022 17:35 15,1 C 77 % 1012,4 hPa 0,0 mm 9,8 km/h (2 Bft) NW 316 5 min 0,000 mm 0,0 UV-I 133 W/m 11,1 C 15,1 C 17,7 km/h (3 Bft) 97,50 %
02.10.2022 17:30 14,9 C 77 % 1012,5 hPa 0,0 mm 10,2 km/h (2 Bft) N-NW 331 0 min 0,000 mm 0,0 UV-I 89 W/m 10,9 C 14,9 C 22,5 km/h (4 Bft) 98,17 %
02.10.2022 17:25 14,9 C 77 % 1012,5 hPa 0,0 mm 12,2 km/h (2 Bft) W 277 0 min 0,000 mm 0,0 UV-I 82 W/m 10,9 C 14,9 C 25,7 km/h (4 Bft) 100,00 %
02.10.2022 17:20 14,7 C 77 % 1012,4 hPa 0,0 mm 9,4 km/h (2 Bft) W-NW 295 0 min 0,000 mm 0,0 UV-I 85 W/m 10,7 C 14,7 C 20,9 km/h (4 Bft) 99,17 %
02.10.2022 17:15 14,8 C 76 % 1012,5 hPa 0,0 mm 12,1 km/h (2 Bft) NW 317 0 min 0,000 mm 0,0 UV-I 69 W/m 10,6 C 14,8 C 19,3 km/h (3 Bft) 99,09 %
02.10.2022 17:10 14,8 C 76 % 1012,4 hPa 0,0 mm 11,9 km/h (2 Bft) W 275 0 min 0,000 mm 0,0 UV-I 60 W/m 10,6 C 14,8 C 27,4 km/h (4 Bft) 100,00 %
02.10.2022 17:05 14,8 C 76 % 1012,4 hPa 0,0 mm 9,9 km/h (2 Bft) NW 319 0 min 0,000 mm 0,0 UV-I 59 W/m 10,6 C 14,8 C 20,9 km/h (4 Bft) 100,00 %
02.10.2022 17:00 14,8 C 75 % 1012,1 hPa 0,0 mm 13,1 km/h (3 Bft) N-NW 338 0 min 0,127 mm 0,0 UV-I 75 W/m 10,4 C 14,8 C 25,7 km/h (4 Bft) 100,00 %
02.10.2022 16:55 14,7 C 77 % 1012,0 hPa 0,0 mm 10,3 km/h (2 Bft) W 267 5 min 0,000 mm 0,0 UV-I 166 W/m 10,7 C 14,7 C 22,5 km/h (4 Bft) 100,00 %
02.10.2022 16:50 14,7 C 78 % 1012,1 hPa 0,0 mm 8,5 km/h (2 Bft) N-NW 328 0 min 0,000 mm 0,1 UV-I 141 W/m 10,9 C 14,7 C 24,1 km/h (4 Bft) 99,10 %
02.10.2022 16:45 14,8 C 78 % 1012,0 hPa 0,0 mm 10,3 km/h (2 Bft) W-NW 293 0 min 0,000 mm 0,0 UV-I 85 W/m 11,0 C 14,8 C 17,7 km/h (3 Bft) 97,50 %
02.10.2022 16:40 14,8 C 78 % 1012,0 hPa 0,0 mm 9,8 km/h (2 Bft) W-NW 284 0 min 0,000 mm 0,0 UV-I 65 W/m 11,0 C 14,8 C 20,9 km/h (4 Bft) 97,50 %
02.10.2022 16:35 15,0 C 78 % 1011,9 hPa 0,0 mm 10,9 km/h (2 Bft) N-NW 344 5 min 0,000 mm 0,5 UV-I 213 W/m 11,2 C 15,0 C 29,0 km/h (5 Bft) 95,83 %
02.10.2022 16:30 15,1 C 77 % 1011,9 hPa 0,0 mm 12,2 km/h (2 Bft) N 355 5 min 0,000 mm 0,6 UV-I 218 W/m 11,1 C 15,1 C 19,3 km/h (3 Bft) 99,07 %
02.10.2022 16:25 15,1 C 78 % 1011,8 hPa 0,0 mm 13,0 km/h (3 Bft) NW 311 5 min 0,000 mm 0,7 UV-I 291 W/m 11,3 C 15,1 C 27,4 km/h (4 Bft) 99,18 %
02.10.2022 16:20 15,2 C 78 % 1011,8 hPa 0,0 mm 12,0 km/h (2 Bft) NW 321 5 min 0,000 mm 0,8 UV-I 309 W/m 11,4 C 15,2 C 20,9 km/h (4 Bft) 100,00 %
02.10.2022 16:15 14,9 C 79 % 1011,9 hPa 0,0 mm 10,4 km/h (2 Bft) N-NW 339 5 min 0,000 mm 0,8 UV-I 303 W/m 11,3 C 14,9 C 22,5 km/h (4 Bft) 98,35 %
02.10.2022 16:10 14,6 C 80 % 1011,9 hPa 0,0 mm 9,7 km/h (2 Bft) W-NW 300 5 min 0,000 mm 0,8 UV-I 306 W/m 11,2 C 14,6 C 16,1 km/h (3 Bft) 100,00 %
02.10.2022 16:05 14,6 C 81 % 1011,5 hPa 0,0 mm 6,2 km/h (2 Bft) N-NO 15 5 min 0,000 mm 0,9 UV-I 310 W/m 11,4 C 14,6 C 14,5 km/h (3 Bft) 100,00 %
02.10.2022 16:00 14,7 C 80 % 1011,6 hPa 0,0 mm 9,7 km/h (2 Bft) W 273 5 min 0,178 mm 0,8 UV-I 252 W/m 11,3 C 14,7 C 19,3 km/h (3 Bft) 100,00 %
02.10.2022 15:55 14,6 C 80 % 1011,5 hPa 0,0 mm 8,9 km/h (2 Bft) N-NW 338 0 min 0,000 mm 0,8 UV-I 186 W/m 11,2 C 14,6 C 19,3 km/h (3 Bft) 100,00 %
02.10.2022 15:50 14,6 C 83 % 1011,5 hPa 0,0 mm 8,8 km/h (2 Bft) N-NW 342 5 min 0,000 mm 1,0 UV-I 271 W/m 11,7 C 14,6 C 16,1 km/h (3 Bft) 98,36 %
02.10.2022 15:45 14,8 C 80 % 1011,5 hPa 0,0 mm 10,5 km/h (2 Bft) NW 324 0 min 0,000 mm 0,6 UV-I 123 W/m 11,4 C 14,8 C 22,5 km/h (4 Bft) 96,75 %
02.10.2022 15:40 14,7 C 80 % 1011,5 hPa 0,0 mm 10,9 km/h (2 Bft) N-NW 347 0 min 0,000 mm 0,4 UV-I 139 W/m 11,3 C 14,7 C 22,5 km/h (4 Bft) 97,27 %
02.10.2022 15:35 15,2 C 78 % 1011,4 hPa 0,0 mm 10,0 km/h (2 Bft) W 278 0 min 0,000 mm 0,0 UV-I 71 W/m 11,4 C 15,2 C 25,7 km/h (4 Bft) 97,52 %
02.10.2022 15:30 15,4 C 76 % 1011,5 hPa 0,0 mm 12,3 km/h (3 Bft) W 270 0 min 0,000 mm 0,9 UV-I 212 W/m 11,2 C 15,4 C 25,7 km/h (4 Bft) 100,00 %
02.10.2022 15:25 15,7 C 75 % 1011,2 hPa 0,0 mm 11,7 km/h (2 Bft) W 263 5 min 0,000 mm 1,3 UV-I 397 W/m 11,3 C 15,7 C 22,5 km/h (4 Bft) 100,00 %
02.10.2022 15:20 15,7 C 74 % 1011,3 hPa 0,0 mm 12,8 km/h (3 Bft) N-NW 336 10 min 0,000 mm 1,4 UV-I 409 W/m 11,1 C 15,7 C 24,1 km/h (4 Bft) 100,00 %
02.10.2022 15:10 15,7 C 76 % 1011,2 hPa 0,0 mm 11,4 km/h (2 Bft) W-NW 303 5 min 0,000 mm 1,6 UV-I 453 W/m 11,5 C 15,7 C 29,0 km/h (5 Bft) 100,00 %
02.10.2022 15:05 15,6 C 76 % 1011,2 hPa 0,0 mm 7,6 km/h (2 Bft) N-NW 335 5 min 0,000 mm 1,5 UV-I 431 W/m 11,4 C 15,6 C 25,7 km/h (4 Bft) 99,18 %
02.10.2022 15:00 15,6 C 78 % 1011,1 hPa 0,0 mm 8,3 km/h (2 Bft) W 263 5 min 0,203 mm 1,6 UV-I 416 W/m 11,8 C 15,6 C 16,1 km/h (3 Bft) 100,00 %
02.10.2022 14:55 15,9 C 77 % 1011,2 hPa 0,0 mm 7,8 km/h (2 Bft) W-SW 246 5 min 0,000 mm 1,6 UV-I 420 W/m 11,9 C 15,9 C 16,1 km/h (3 Bft) 100,00 %
02.10.2022 14:50 15,7 C 79 % 1011,3 hPa 0,0 mm 9,1 km/h (2 Bft) NW 326 5 min 0,000 mm 1,7 UV-I 435 W/m 12,1 C 15,7 C 19,3 km/h (3 Bft) 98,20 %
02.10.2022 14:45 15,7 C 80 % 1011,2 hPa 0,0 mm 5,9 km/h (2 Bft) W-NW 302 5 min 0,000 mm 1,7 UV-I 465 W/m 12,3 C 15,7 C 17,7 km/h (3 Bft) 97,58 %
02.10.2022 14:40 14,8 C 81 % 1011,1 hPa 0,0 mm 8,5 km/h (2 Bft) NW 309 0 min 0,000 mm 1,1 UV-I 110 W/m 11,6 C 14,8 C 16,1 km/h (3 Bft) 97,27 %
02.10.2022 14:35 15,1 C 82 % 1011,0 hPa 0,0 mm 5,7 km/h (1 Bft) W 275 0 min 0,000 mm 1,0 UV-I 123 W/m 12,0 C 15,1 C 11,3 km/h (2 Bft) 98,35 %
02.10.2022 14:30 15,4 C 81 % 1011,1 hPa 0,0 mm 8,9 km/h (2 Bft) N-NW 328 0 min 0,000 mm 1,2 UV-I 179 W/m 12,2 C 15,4 C 22,5 km/h (4 Bft) 97,52 %
02.10.2022 14:25 15,9 C 78 % 1011,0 hPa 0,0 mm 7,3 km/h (2 Bft) NW 321 5 min 0,000 mm 1,5 UV-I 350 W/m 12,1 C 15,9 C 14,5 km/h (3 Bft) 98,18 %
02.10.2022 14:20 16,2 C 79 % 1011,0 hPa 0,0 mm 7,3 km/h (2 Bft) W-NW 302 5 min 0,000 mm 1,8 UV-I 486 W/m 12,6 C 16,2 C 17,7 km/h (3 Bft) 99,19 %
02.10.2022 14:15 16,0 C 81 % 1011,0 hPa 0,0 mm 8,0 km/h (2 Bft) W-NW 294 5 min 0,000 mm 2,0 UV-I 533 W/m 12,7 C 16,0 C 20,9 km/h (4 Bft) 99,17 %
02.10.2022 14:10 15,6 C 82 % 1010,8 hPa 0,0 mm 5,5 km/h (1 Bft) W-NW 302 5 min 0,000 mm 1,8 UV-I 375 W/m 12,5 C 15,6 C 12,9 km/h (3 Bft) 99,10 %
02.10.2022 14:05 15,8 C 83 % 1010,9 hPa 0,0 mm 7,1 km/h (2 Bft) N-NW 336 5 min 0,000 mm 2,0 UV-I 299 W/m 12,9 C 15,8 C 16,1 km/h (3 Bft) 99,18 %
02.10.2022 14:00 15,2 C 82 % 1010,8 hPa 0,0 mm 7,3 km/h (2 Bft) W-NW 298 5 min 0,178 mm 1,5 UV-I 510 W/m 12,1 C 15,2 C 16,1 km/h (3 Bft) 100,00 %
02.10.2022 13:55 14,7 C 82 % 1010,8 hPa 0,0 mm 9,3 km/h (2 Bft) W 277 0 min 0,000 mm 1,2 UV-I 162 W/m 11,7 C 14,7 C 17,7 km/h (3 Bft) 97,52 %
02.10.2022 13:50 15,1 C 83 % 1010,9 hPa 0,0 mm 9,3 km/h (2 Bft) W-SW 239 0 min 0,000 mm 1,2 UV-I 175 W/m 12,2 C 15,1 C 29,0 km/h (5 Bft) 95,87 %
02.10.2022 13:45 15,2 C 83 % 1010,8 hPa 0,0 mm 6,0 km/h (2 Bft) W-SW 255 5 min 0,000 mm 1,7 UV-I 446 W/m 12,3 C 15,2 C 14,5 km/h (3 Bft) 97,30 %
02.10.2022 13:40 14,8 C 86 % 1010,8 hPa 0,0 mm 6,5 km/h (2 Bft) N-NW 345 0 min 0,000 mm 1,8 UV-I 267 W/m 12,5 C 14,8 C 14,5 km/h (3 Bft) 97,50 %
02.10.2022 13:35 14,5 C 84 % 1010,8 hPa 0,0 mm 8,2 km/h (2 Bft) NW 319 0 min 0,000 mm 1,6 UV-I 175 W/m 11,8 C 14,5 C 16,1 km/h (3 Bft) 99,17 %
02.10.2022 13:30 14,5 C 83 % 1010,8 hPa 0,0 mm 8,3 km/h (2 Bft) W-NW 284 5 min 0,000 mm 1,7 UV-I 353 W/m 11,6 C 14,5 C 17,7 km/h (3 Bft) 100,00 %
02.10.2022 13:25 14,3 C 84 % 1010,8 hPa 0,0 mm 9,9 km/h (2 Bft) N-NW 329 0 min 0,000 mm 1,7 UV-I 109 W/m 11,6 C 14,3 C 24,1 km/h (4 Bft) 98,35 %
02.10.2022 13:20 14,3 C 84 % 1010,8 hPa 0,0 mm 11,3 km/h (2 Bft) NW 320 0 min 0,000 mm 1,4 UV-I 260 W/m 11,6 C 14,3 C 20,9 km/h (4 Bft) 100,00 %
02.10.2022 13:15 14,4 C 84 % 1010,8 hPa 0,0 mm 11,4 km/h (2 Bft) W-NW 303 5 min 0,000 mm 1,4 UV-I 289 W/m 11,7 C 14,4 C 22,5 km/h (4 Bft) 100,00 %
02.10.2022 13:10 14,4 C 85 % 1010,8 hPa 0,0 mm 12,2 km/h (2 Bft) W-NW 288 5 min 0,000 mm 1,4 UV-I 285 W/m 11,9 C 14,4 C 27,4 km/h (4 Bft) 99,17 %
02.10.2022 13:05 14,4 C 86 % 1010,7 hPa 0,0 mm 11,7 km/h (2 Bft) W-SW 242 5 min 0,177 mm 1,7 UV-I 615 W/m 12,1 C 14,4 C 20,9 km/h (4 Bft) 99,09 %
02.10.2022 13:00 14,1 C 88 % 1010,7 hPa 0,0 mm 8,4 km/h (2 Bft) N-NO 15 0 min 0,000 mm 1,7 UV-I 248 W/m 12,1 C 14,1 C 17,7 km/h (3 Bft) 100,00 %
02.10.2022 12:55 14,1 C 87 % 1010,7 hPa 0,0 mm 7,6 km/h (2 Bft) W-NW 283 0 min 0,000 mm 1,3 UV-I 161 W/m 12,0 C 14,1 C 16,1 km/h (3 Bft) 99,08 %
02.10.2022 12:50 13,9 C 88 % 1010,7 hPa 0,0 mm 9,4 km/h (2 Bft) NW 304 0 min 0,000 mm 1,3 UV-I 177 W/m 11,9 C 13,9 C 22,5 km/h (4 Bft) 97,56 %
02.10.2022 12:45 14,1 C 88 % 1010,5 hPa 0,0 mm 9,5 km/h (2 Bft) W 263 5 min 0,000 mm 1,4 UV-I 361 W/m 12,1 C 14,1 C 20,9 km/h (4 Bft) 96,36 %
02.10.2022 12:40 14,2 C 90 % 1010,6 hPa 0,0 mm 6,8 km/h (2 Bft) SW 236 5 min 0,000 mm 1,8 UV-I 430 W/m 12,6 C 14,2 C 17,7 km/h (3 Bft) 94,31 %
02.10.2022 12:35 13,9 C 90 % 1010,6 hPa 0,0 mm 7,1 km/h (2 Bft) W 280 0 min 0,000 mm 1,6 UV-I 243 W/m 12,3 C 13,9 C 22,5 km/h (4 Bft) 96,40 %
02.10.2022 12:30 14,3 C 90 % 1010,5 hPa 0,0 mm 7,8 km/h (2 Bft) NW 322 5 min 0,000 mm 1,4 UV-I 480 W/m 12,7 C 14,3 C 16,1 km/h (3 Bft) 99,18 %
02.10.2022 12:25 13,9 C 92 % 1010,4 hPa 0,0 mm 7,1 km/h (2 Bft) W 269 5 min 0,000 mm 2,1 UV-I 463 W/m 12,6 C 13,9 C 22,5 km/h (4 Bft) 97,52 %
02.10.2022 12:20 13,7 C 91 % 1010,4 hPa 0,0 mm 8,4 km/h (2 Bft) W-SW 250 0 min 0,000 mm 1,8 UV-I 180 W/m 12,3 C 13,7 C 20,9 km/h (4 Bft) 98,17 %
02.10.2022 12:15 13,8 C 92 % 1010,4 hPa 0,0 mm 6,4 km/h (2 Bft) W-SW 243 5 min 0,000 mm 1,4 UV-I 400 W/m 12,5 C 13,8 C 19,3 km/h (3 Bft) 100,00 %
02.10.2022 12:10 13,9 C 94 % 1010,4 hPa 0,0 mm 6,1 km/h (2 Bft) W 275 5 min 0,000 mm 1,9 UV-I 616 W/m 12,9 C 13,9 C 14,5 km/h (3 Bft) 99,18 %
02.10.2022 12:05 13,5 C 94 % 1010,5 hPa 0,0 mm 8,2 km/h (2 Bft) W-NW 293 0 min 0,000 mm 1,6 UV-I 249 W/m 12,6 C 13,5 C 17,7 km/h (3 Bft) 98,17 %
02.10.2022 12:00 13,5 C 95 % 1010,3 hPa 0,0 mm 3,6 km/h (1 Bft) NW 323 0 min 0,178 mm 1,6 UV-I 153 W/m 12,7 C 13,5 C 9,7 km/h (2 Bft) 100,00 %
02.10.2022 11:55 13,3 C 95 % 1010,3 hPa 0,0 mm 4,8 km/h (1 Bft) W-NW 290 0 min 0,000 mm 1,5 UV-I 258 W/m 12,5 C 13,3 C 17,7 km/h (3 Bft) 98,20 %
02.10.2022 11:50 13,3 C 95 % 1010,3 hPa 0,0 mm 6,9 km/h (2 Bft) W-NW 287 5 min 0,000 mm 1,5 UV-I 427 W/m 12,5 C 13,3 C 22,5 km/h (4 Bft) 97,64 %
02.10.2022 11:45 13,4 C 96 % 1010,3 hPa 0,0 mm 6,3 km/h (2 Bft) W 261 5 min 0,000 mm 1,7 UV-I 456 W/m 12,8 C 13,4 C 17,7 km/h (3 Bft) 97,25 %
02.10.2022 11:40 13,2 C 96 % 1010,3 hPa 0,0 mm 2,4 km/h (1 Bft) S-SW 201 5 min 0,000 mm 1,3 UV-I 269 W/m 12,6 C 13,2 C 14,5 km/h (3 Bft) 97,52 %
02.10.2022 11:35 12,8 C 96 % 1010,3 hPa 0,0 mm 4,2 km/h (1 Bft) W 269 5 min 0,000 mm 1,6 UV-I 422 W/m 12,2 C 12,8 C 16,1 km/h (3 Bft) 95,54 %
02.10.2022 11:30 12,8 C 96 % 1010,3 hPa 0,0 mm 3,5 km/h (1 Bft) W-NW 283 5 min 0,000 mm 1,4 UV-I 276 W/m 12,2 C 12,8 C 19,3 km/h (3 Bft) 98,36 %
02.10.2022 11:25 12,7 C 96 % 1010,2 hPa 0,0 mm 2,6 km/h (1 Bft) SW 229 5 min 0,000 mm 1,3 UV-I 367 W/m 12,1 C 12,7 C 11,3 km/h (2 Bft) 100,00 %
02.10.2022 11:20 12,8 C 96 % 1010,2 hPa 0,0 mm 3,1 km/h (1 Bft) NW 309 5 min 0,000 mm 1,4 UV-I 472 W/m 12,2 C 12,8 C 11,3 km/h (2 Bft) 99,17 %
02.10.2022 11:15 12,5 C 96 % 1010,1 hPa 0,0 mm 1,6 km/h (1 Bft) W 274 5 min 0,000 mm 1,3 UV-I 381 W/m 11,9 C 12,5 C 9,7 km/h (2 Bft) 98,33 %
02.10.2022 11:10 12,6 C 96 % 1010,3 hPa 0,0 mm 1,0 km/h (0 Bft) N-NW 342 5 min 0,000 mm 1,3 UV-I 452 W/m 12,0 C 12,6 C 6,4 km/h (2 Bft) 99,09 %
02.10.2022 11:05 12,1 C 96 % 1010,2 hPa 0,0 mm 3,7 km/h (1 Bft) W 260 0 min 0,000 mm 1,2 UV-I 200 W/m 11,5 C 12,1 C 14,5 km/h (3 Bft) 100,00 %
02.10.2022 11:00 12,2 C 96 % 1010,2 hPa 0,0 mm 6,8 km/h (2 Bft) W 268 0 min 0,127 mm 1,0 UV-I 190 W/m 11,6 C 12,2 C 20,9 km/h (4 Bft) 99,19 %
02.10.2022 10:55 12,3 C 96 % 1010,2 hPa 0,0 mm 3,5 km/h (1 Bft) W 281 5 min 0,000 mm 0,9 UV-I 238 W/m 11,7 C 12,3 C 16,1 km/h (3 Bft) 100,00 %
02.10.2022 10:50 12,3 C 96 % 1010,1 hPa 0,0 mm 2,3 km/h (1 Bft) W 273 5 min 0,000 mm 1,1 UV-I 343 W/m 11,7 C 12,3 C 17,7 km/h (3 Bft) 97,54 %
02.10.2022 10:45 11,9 C 96 % 1010,2 hPa 0,0 mm 4,4 km/h (1 Bft) W-SW 257 0 min 0,000 mm 0,6 UV-I 164 W/m 11,3 C 11,9 C 12,9 km/h (3 Bft) 97,27 %
02.10.2022 10:40 11,8 C 96 % 1010,1 hPa 0,0 mm 3,4 km/h (1 Bft) W-SW 245 0 min 0,000 mm 0,5 UV-I 123 W/m 11,2 C 11,8 C 16,1 km/h (3 Bft) 96,69 %
02.10.2022 10:35 11,9 C 96 % 1010,1 hPa 0,0 mm 4,7 km/h (1 Bft) S-SW 209 5 min 0,000 mm 0,8 UV-I 261 W/m 11,3 C 11,9 C 16,1 km/h (3 Bft) 98,36 %
02.10.2022 10:30 11,6 C 96 % 1010,1 hPa 0,0 mm 4,9 km/h (1 Bft) W-SW 254 5 min 0,000 mm 1,0 UV-I 416 W/m 11,0 C 11,6 C 19,3 km/h (3 Bft) 100,00 %
02.10.2022 10:25 11,2 C 96 % 1010,0 hPa 0,0 mm 1,4 km/h (1 Bft) NW 306 5 min 0,000 mm 0,9 UV-I 355 W/m 10,6 C 11,2 C 9,7 km/h (2 Bft) 100,00 %
02.10.2022 10:20 10,9 C 96 % 1010,0 hPa 0,0 mm 2,7 km/h (1 Bft) W-SW 240 0 min 0,000 mm 0,8 UV-I 199 W/m 10,3 C 10,9 C 17,7 km/h (3 Bft) 100,00 %
02.10.2022 10:15 10,7 C 96 % 1010,0 hPa 0,0 mm 2,1 km/h (1 Bft) O-SO 105 5 min 0,000 mm 0,8 UV-I 270 W/m 10,1 C 10,7 C 6,4 km/h (2 Bft) 100,00 %
02.10.2022 10:10 10,6 C 96 % 1010,0 hPa 0,0 mm 1,5 km/h (1 Bft) W-SW 249 5 min 0,000 mm 0,8 UV-I 254 W/m 10,0 C 10,6 C 6,4 km/h (2 Bft) 100,00 %
02.10.2022 10:05 10,5 C 96 % 1009,9 hPa 0,0 mm 3,2 km/h (1 Bft) S-SW 211 5 min 0,000 mm 0,7 UV-I 266 W/m 9,9 C 10,5 C 9,7 km/h (2 Bft) 99,18 %
02.10.2022 10:00 10,4 C 96 % 1009,9 hPa 0,0 mm 3,5 km/h (1 Bft) W 263 0 min 0,026 mm 0,5 UV-I 74 W/m 9,8 C 10,4 C 11,3 km/h (2 Bft) 99,07 %
02.10.2022 09:55 10,4 C 96 % 1009,8 hPa 0,0 mm 4,0 km/h (1 Bft) W-NW 284 0 min 0,000 mm 0,1 UV-I 68 W/m 9,8 C 10,4 C 12,9 km/h (3 Bft) 98,36 %
02.10.2022 09:50 10,5 C 96 % 1009,7 hPa 0,0 mm 1,8 km/h (1 Bft) W-SW 253 0 min 0,000 mm 0,0 UV-I 47 W/m 9,9 C 10,5 C 6,4 km/h (2 Bft) 97,52 %
02.10.2022 09:45 10,6 C 96 % 1009,6 hPa 0,0 mm 1,6 km/h (1 Bft) W-NW 294 0 min 0,000 mm 0,0 UV-I 33 W/m 10,0 C 10,6 C 6,4 km/h (2 Bft) 97,30 %
02.10.2022 09:40 10,7 C 96 % 1009,5 hPa 0,0 mm 1,7 km/h (1 Bft) S-SW 196 0 min 0,000 mm 0,0 UV-I 23 W/m 10,1 C 10,7 C 8,0 km/h (2 Bft) 95,90 %
02.10.2022 09:35 10,8 C 96 % 1009,7 hPa 0,2 mm 1,8 km/h (1 Bft) N-NW 346 0 min 0,000 mm 0,0 UV-I 26 W/m 10,2 C 10,8 C 11,3 km/h (2 Bft) 98,18 %
02.10.2022 09:30 10,8 C 96 % 1009,8 hPa 0,0 mm 1,3 km/h (1 Bft) S-SW 207 0 min 0,000 mm 0,0 UV-I 36 W/m 10,2 C 10,8 C 6,4 km/h (2 Bft) 100,00 %
02.10.2022 09:25 10,8 C 96 % 1010,1 hPa 0,0 mm 1,9 km/h (1 Bft) W 266 0 min 0,000 mm 0,0 UV-I 36 W/m 10,2 C 10,8 C 9,7 km/h (2 Bft) 100,00 %
02.10.2022 09:20 10,8 C 96 % 1010,1 hPa 0,0 mm 2,6 km/h (1 Bft) N 350 0 min 0,000 mm 0,0 UV-I 28 W/m 10,2 C 10,8 C 12,9 km/h (3 Bft) 100,00 %
02.10.2022 09:15 10,7 C 96 % 1010,1 hPa 0,2 mm 2,1 km/h (1 Bft) SW 223 0 min 0,000 mm 0,0 UV-I 21 W/m 10,1 C 10,7 C 9,7 km/h (2 Bft) 100,00 %
02.10.2022 09:10 10,8 C 96 % 1009,9 hPa 0,2 mm 3,1 km/h (1 Bft) S-SW 198 0 min 0,000 mm 0,0 UV-I 19 W/m 10,2 C 10,8 C 8,0 km/h (2 Bft) 98,94 %
02.10.2022 09:05 10,8 C 96 % 1010,1 hPa 0,2 mm 1,6 km/h (1 Bft) W-SW 247 0 min 0,000 mm 0,0 UV-I 18 W/m 10,2 C 10,8 C 9,7 km/h (2 Bft) 98,25 %
02.10.2022 09:00 10,8 C 96 % 1009,9 hPa 0,0 mm 1,6 km/h (1 Bft) S-SW 202 0 min 0,025 mm 0,0 UV-I 26 W/m 10,2 C 10,8 C 6,4 km/h (2 Bft) 99,12 %
02.10.2022 08:55 10,8 C 96 % 1009,7 hPa 0,2 mm 1,6 km/h (1 Bft) W-SW 247 0 min 0,000 mm 0,0 UV-I 27 W/m 10,2 C 10,8 C 9,7 km/h (2 Bft) 100,00 %
02.10.2022 08:50 10,8 C 96 % 1009,6 hPa 0,2 mm 1,6 km/h (1 Bft) SW 225 0 min 0,000 mm 0,0 UV-I 39 W/m 10,2 C 10,8 C 6,4 km/h (2 Bft) 99,12 %
02.10.2022 08:45 10,7 C 96 % 1009,6 hPa 0,0 mm 0,0 km/h (0 Bft) S 180 0 min 0,000 mm 0,0 UV-I 52 W/m 10,1 C 10,7 C 6,4 km/h (2 Bft) 100,00 %
02.10.2022 08:40 10,6 C 96 % 1009,7 hPa 0,0 mm 0,1 km/h (0 Bft) S 183 0 min 0,000 mm 0,0 UV-I 71 W/m 10,0 C 10,6 C 1,6 km/h (1 Bft) 97,48 %
02.10.2022 08:35 10,4 C 96 % 1009,6 hPa 0,0 mm 1,9 km/h (1 Bft) S 183 0 min 0,000 mm 0,0 UV-I 40 W/m 9,8 C 10,4 C 6,4 km/h (2 Bft) 99,08 %
02.10.2022 08:30 10,2 C 96 % 1009,6 hPa 0,0 mm 0,0 km/h (0 Bft) W-NW 294 0 min 0,000 mm 0,0 UV-I 12 W/m 9,6 C 10,2 C 1,6 km/h (1 Bft) 99,18 %
02.10.2022 08:25 10,2 C 96 % 1009,3 hPa 0,0 mm 1,1 km/h (1 Bft) W-NW 294 0 min 0,000 mm 0,0 UV-I 6 W/m 9,6 C 10,2 C 8,0 km/h (2 Bft) 98,32 %
02.10.2022 08:20 10,2 C 95 % 1009,7 hPa 0,4 mm 0,6 km/h (0 Bft) W-SW 238 0 min 0,000 mm 0,0 UV-I 2 W/m 9,4 C 10,2 C 6,4 km/h (2 Bft) 99,11 %
02.10.2022 08:15 10,2 C 95 % 1009,6 hPa 0,8 mm 4,9 km/h (1 Bft) W 268 0 min 0,000 mm 0,0 UV-I 1 W/m 9,4 C 10,2 C 9,7 km/h (2 Bft) 100,00 %
02.10.2022 08:10 10,2 C 95 % 1009,2 hPa 0,4 mm 1,7 km/h (1 Bft) NW 304 0 min 0,000 mm 0,0 UV-I 7 W/m 9,4 C 10,2 C 8,0 km/h (2 Bft) 99,14 %
02.10.2022 08:05 10,3 C 95 % 1009,2 hPa 0,0 mm 1,1 km/h (1 Bft) W-SW 254 0 min 0,000 mm 0,0 UV-I 11 W/m 9,5 C 10,3 C 4,8 km/h (1 Bft) 100,00 %
02.10.2022 08:00 10,4 C 96 % 1009,0 hPa 0,0 mm 1,9 km/h (1 Bft) W-SW 250 0 min 0,000 mm 0,0 UV-I 11 W/m 9,8 C 10,4 C 8,0 km/h (2 Bft) 100,00 %
02.10.2022 07:55 10,4 C 96 % 1008,9 hPa 0,0 mm 1,2 km/h (1 Bft) SW 223 0 min 0,000 mm 0,0 UV-I 7 W/m 9,8 C 10,4 C 6,4 km/h (2 Bft) 100,00 %
02.10.2022 07:50 10,4 C 96 % 1008,9 hPa 0,0 mm 1,3 km/h (1 Bft) SW 220 0 min 0,000 mm 0,0 UV-I 5 W/m 9,8 C 10,4 C 6,4 km/h (2 Bft) 97,04 %
02.10.2022 07:45 10,4 C 96 % 1009,0 hPa 0,0 mm 1,2 km/h (1 Bft) S 169 0 min 0,000 mm 0,0 UV-I 7 W/m 9,8 C 10,4 C 4,8 km/h (1 Bft) 97,94 %
02.10.2022 07:40 10,4 C 96 % 1009,1 hPa 0,2 mm 1,0 km/h (0 Bft) S 189 0 min 0,000 mm 0,0 UV-I 4 W/m 9,8 C 10,4 C 11,3 km/h (2 Bft) 97,54 %
02.10.2022 07:35 10,4 C 96 % 1009,0 hPa 0,2 mm 2,1 km/h (1 Bft) W-NW 288 0 min 0,000 mm 0,0 UV-I 0 W/m 9,8 C 10,4 C 9,7 km/h (2 Bft) 97,54 %
02.10.2022 07:30 10,4 C 96 % 1009,3 hPa 0,0 mm 3,3 km/h (1 Bft) SW 217 0 min 0,000 mm 0,0 UV-I 0 W/m 9,8 C 10,4 C 11,3 km/h (2 Bft) 98,18 %
02.10.2022 07:25 10,4 C 96 % 1009,2 hPa 0,2 mm 3,0 km/h (1 Bft) W-SW 250 0 min 0,000 mm 0,0 UV-I 0 W/m 9,8 C 10,4 C 9,7 km/h (2 Bft) 100,00 %
02.10.2022 07:20 10,5 C 96 % 1009,1 hPa 0,0 mm 6,6 km/h (2 Bft) W-SW 254 0 min 0,000 mm 0,0 UV-I 0 W/m 9,9 C 10,5 C 12,9 km/h (3 Bft) 100,00 %
02.10.2022 07:15 10,4 C 96 % 1009,1 hPa 0,6 mm 4,6 km/h (1 Bft) S-SW 213 0 min 0,000 mm 0,0 UV-I 0 W/m 9,8 C 10,4 C 19,3 km/h (3 Bft) 100,00 %
02.10.2022 07:10 10,4 C 96 % 1008,8 hPa 0,0 mm 1,8 km/h (1 Bft) SW 233 0 min 0,000 mm 0,0 UV-I 0 W/m 9,8 C 10,4 C 9,7 km/h (2 Bft) 98,35 %
02.10.2022 07:05 10,4 C 96 % 1008,6 hPa 0,0 mm 1,2 km/h (1 Bft) SO 134 0 min 0,000 mm 0,0 UV-I 0 W/m 9,8 C 10,4 C 11,3 km/h (2 Bft) 97,52 %
02.10.2022 07:00 10,3 C 96 % 1008,5 hPa 0,0 mm 1,3 km/h (1 Bft) W 268 0 min 0,000 mm 0,0 UV-I 0 W/m 9,7 C 10,3 C 8,0 km/h (2 Bft) 100,00 %
02.10.2022 06:55 10,4 C 96 % 1008,6 hPa 0,0 mm 3,7 km/h (1 Bft) S-SW 204 0 min 0,000 mm 0,0 UV-I 0 W/m 9,8 C 10,4 C 11,3 km/h (2 Bft) 98,35 %
02.10.2022 06:50 10,3 C 96 % 1008,5 hPa 0,2 mm 3,0 km/h (1 Bft) SW 234 0 min 0,000 mm 0,0 UV-I 0 W/m 9,7 C 10,3 C 14,5 km/h (3 Bft) 98,21 %
02.10.2022 06:45 10,2 C 96 % 1008,6 hPa 0,2 mm 3,6 km/h (1 Bft) SO 141 0 min 0,000 mm 0,0 UV-I 0 W/m 9,6 C 10,2 C 11,3 km/h (2 Bft) 95,83 %
02.10.2022 06:40 10,1 C 96 % 1008,5 hPa 0,0 mm 2,6 km/h (1 Bft) S-SW 194 0 min 0,000 mm 0,0 UV-I 0 W/m 9,5 C 10,1 C 11,3 km/h (2 Bft) 96,69 %
02.10.2022 06:35 9,9 C 95 % 1008,5 hPa 0,0 mm 2,5 km/h (1 Bft) S-SW 198 0 min 0,000 mm 0,0 UV-I 0 W/m 9,1 C 9,9 C 11,3 km/h (2 Bft) 98,21 %
02.10.2022 06:30 9,8 C 95 % 1008,5 hPa 0,0 mm 2,5 km/h (1 Bft) W-NW 301 0 min 0,000 mm 0,0 UV-I 0 W/m 9,0 C 9,8 C 14,5 km/h (3 Bft) 100,00 %
02.10.2022 06:25 9,8 C 95 % 1008,5 hPa 0,0 mm 1,8 km/h (1 Bft) W-NW 284 0 min 0,000 mm 0,0 UV-I 0 W/m 9,0 C 9,8 C 8,0 km/h (2 Bft) 98,21 %
02.10.2022 06:20 9,9 C 95 % 1008,4 hPa 0,0 mm 3,4 km/h (1 Bft) S 174 0 min 0,000 mm 0,0 UV-I 0 W/m 9,1 C 9,9 C 16,1 km/h (3 Bft) 97,52 %
02.10.2022 06:15 9,8 C 95 % 1008,4 hPa 0,0 mm 2,5 km/h (1 Bft) W-SW 250 0 min 0,000 mm 0,0 UV-I 0 W/m 9,0 C 9,8 C 16,1 km/h (3 Bft) 100,00 %
02.10.2022 06:10 9,7 C 95 % 1008,3 hPa 0,0 mm 1,4 km/h (1 Bft) W-SW 252 0 min 0,000 mm 0,0 UV-I 0 W/m 8,9 C 9,7 C 9,7 km/h (2 Bft) 100,00 %
02.10.2022 06:05 9,8 C 95 % 1008,2 hPa 0,0 mm 0,7 km/h (0 Bft) S 189 0 min 0,000 mm 0,0 UV-I 0 W/m 9,0 C 9,8 C 3,2 km/h (1 Bft) 100,00 %
02.10.2022 06:00 9,9 C 95 % 1008,3 hPa 0,0 mm 2,9 km/h (1 Bft) W-SW 252 0 min 0,000 mm 0,0 UV-I 0 W/m 9,1 C 9,9 C 11,3 km/h (2 Bft) 100,00 %
02.10.2022 05:55 9,9 C 95 % 1008,3 hPa 0,0 mm 1,6 km/h (1 Bft) W-SW 241 0 min 0,000 mm 0,0 UV-I 0 W/m 9,1 C 9,9 C 9,7 km/h (2 Bft) 97,56 %
02.10.2022 05:50 10,0 C 96 % 1008,3 hPa 0,0 mm 1,5 km/h (1 Bft) W-SW 252 0 min 0,000 mm 0,0 UV-I 0 W/m 9,4 C 10,0 C 11,3 km/h (2 Bft) 96,72 %
02.10.2022 05:45 10,1 C 96 % 1008,2 hPa 0,0 mm 2,8 km/h (1 Bft) S-SW 208 0 min 0,000 mm 0,0 UV-I 0 W/m 9,5 C 10,1 C 12,9 km/h (3 Bft) 97,22 %
02.10.2022 05:40 10,1 C 96 % 1008,2 hPa 0,0 mm 1,7 km/h (1 Bft) S 180 0 min 0,000 mm 0,0 UV-I 0 W/m 9,5 C 10,1 C 8,0 km/h (2 Bft) 96,72 %
02.10.2022 05:35 10,0 C 96 % 1008,2 hPa 0,0 mm 1,2 km/h (1 Bft) SW 221 0 min 0,000 mm 0,0 UV-I 0 W/m 9,4 C 10,0 C 11,3 km/h (2 Bft) 95,04 %
02.10.2022 05:30 9,9 C 95 % 1008,1 hPa 0,0 mm 2,1 km/h (1 Bft) S-SW 196 0 min 0,000 mm 0,0 UV-I 0 W/m 9,1 C 9,9 C 9,7 km/h (2 Bft) 99,09 %
02.10.2022 05:25 9,9 C 95 % 1008,1 hPa 0,0 mm 1,2 km/h (1 Bft) SW 232 0 min 0,000 mm 0,0 UV-I 0 W/m 9,1 C 9,9 C 8,0 km/h (2 Bft) 100,00 %
02.10.2022 05:20 9,9 C 95 % 1008,0 hPa 0,0 mm 1,4 km/h (1 Bft) S-SO 148 0 min 0,000 mm 0,0 UV-I 0 W/m 9,1 C 9,9 C 6,4 km/h (2 Bft) 100,00 %
02.10.2022 05:15 9,9 C 95 % 1008,0 hPa 0,0 mm 1,0 km/h (0 Bft) O-SO 115 0 min 0,000 mm 0,0 UV-I 0 W/m 9,1 C 9,9 C 4,8 km/h (1 Bft) 100,00 %
02.10.2022 05:10 9,9 C 95 % 1007,9 hPa 0,0 mm 0,8 km/h (0 Bft) O 101 0 min 0,000 mm 0,0 UV-I 0 W/m 9,1 C 9,9 C 8,0 km/h (2 Bft) 99,17 %
02.10.2022 05:05 10,1 C 95 % 1007,9 hPa 0,0 mm 1,0 km/h (0 Bft) W-NW 301 0 min 0,000 mm 0,0 UV-I 0 W/m 9,3 C 10,1 C 6,4 km/h (2 Bft) 99,08 %
02.10.2022 05:00 10,1 C 95 % 1007,9 hPa 0,0 mm 1,9 km/h (1 Bft) O-NO 74 0 min 0,000 mm 0,0 UV-I 0 W/m 9,3 C 10,1 C 8,0 km/h (2 Bft) 100,00 %
_ Min-Zeit 06:10 15:20 05:00 - 08:30 - - - - - - 03:15 04:15 08:30 12:40
Minimum _ 9,7 C 74 % 1007,9 hPa - 0,0 km/h (0 Bft) - - - - - - 8,7 C 9,1 C 1,6 km/h (1 Bft) 94,31 %
_ Max-Zeit 14:20 05:35 04:15 18:00 17:00 - - 15:20 15:00 12:25 12:10 12:10 14:20 17:55 05:00
Maximum _ 16,2 C 96 % 1018,9 hPa 1,2 mm 13,1 km/h
N-NW (3 Bft)
- - 10 min 0,203 mm 2,1 UV-I 616 W/m 12,9 C 16,2 C 30,6 km/h
N-NW (5 Bft)
100,00 %
Durchschnitt _ 11,6 C 91 % 1012,5 hPa #6,0 mm 5,1 km/h (1 Bft) W-NW - #0 min. #0,000 mm 0,0 UV-I 0 W/m 10,2 C 11,6 C 13,3 km/h (3 Bft) 98,80 %
Alle Angaben ohne Gewhr !